This is the latest recevied weather packets stored in our database for station/object KC9DK. If no packets are shown the sender has not sent any weather packets the latest 10 day(s).
| Time | Temp. | Humidity | Pressure | Rain* | Wind** | Luminosity | Snow |
|---|---|---|---|---|---|---|---|
| 1778372009 | 23.33° C | 52% | 1010 hPa | 0 mm | - | 16 W/m² | - |
| 1778371705 | 23.33° C | 49% | 1010.1 hPa | 0 mm | - | 18 W/m² | - |
| 1778371402 | 23.89° C | 46% | 1010 hPa | 0 mm | - | 19 W/m² | - |
| 1778371099 | 23.89° C | 45% | 1009.9 hPa | 0 mm | - | 22 W/m² | - |
| 1778370796 | 23.89° C | 46% | 1010.1 hPa | 0 mm | - | 22 W/m² | - |
| 1778370491 | 24.44° C | 44% | 1009.9 hPa | 0 mm | - | 24 W/m² | - |
| 1778370188 | 24.44° C | 45% | 1010.2 hPa | 0 mm | - | 37 W/m² | - |
| 1778369887 | 25° C | 43% | 1009.9 hPa | 0 mm | - | 52 W/m² | - |
| 1778369584 | 25° C | 44% | 1009.9 hPa | 0 mm | - | 34 W/m² | - |
| 1778369279 | 24.44° C | 43% | 1009.8 hPa | 0 mm | - | 75 W/m² | - |
| 1778368977 | 24.44° C | 42% | 1010 hPa | 0 mm | - | 35 W/m² | - |
| 1778368673 | 24.44° C | 44% | 1010.2 hPa | 0 mm | - | 30 W/m² | - |
| 1778368370 | 24.44° C | 41% | 1009.8 hPa | 0 mm | - | 33 W/m² | - |
| 1778368068 | 24.44° C | 42% | 1009.9 hPa | 0 mm | - | 34 W/m² | - |
| 1778367764 | 25° C | 44% | 1010 hPa | 0 mm | - | 33 W/m² | - |
| 1778367460 | 25° C | 40% | 1009.8 hPa | 0 mm | - | 123 W/m² | - |
| 1778367156 | 25° C | 41% | 1009.8 hPa | 0 mm | - | 37 W/m² | - |
| 1778366852 | 24.44° C | 39% | 1009.7 hPa | 0 mm | - | 83 W/m² | - |
| 1778366550 | 24.44° C | 49% | 1009.7 hPa | 0 mm | - | 34 W/m² | - |
| 1778366246 | 24.44° C | 46% | 1009.5 hPa | 0 mm | - | 36 W/m² | - |
| 1778365943 | 24.44° C | 47% | 1009.9 hPa | 0 mm | - | 37 W/m² | - |
| 1778365640 | 25° C | 45% | 1009.6 hPa | 0 mm | - | 38 W/m² | - |
| 1778365335 | 25° C | 46% | 1009.4 hPa | 0 mm | - | 43 W/m² | - |
| 1778365031 | 25° C | 46% | 1009.7 hPa | 0 mm | - | 36 W/m² | - |
| 1778364727 | 24.44° C | 46% | 1009.4 hPa | 0 mm | - | 37 W/m² | - |
* Rain latest hour (hover to see other rain measurements)
** Current wind speed in m/s (hover to see current wind gust speed)